owner,sensor,date,latitude,longitude,vertical_datum,wind_speed,wind_to_direction,wind_speed_of_gust,qcFlag 
TABS,ioos:station:wmo:42044:1,2015-08-01T00:00:00Z,26.1914,-97.0507,0.0,2.449346852,157.9382216,3.07,'11111222,11111222,11111222' 
TABS,ioos:station:wmo:42044:1,2015-08-01T00:30:00Z,26.1914,-97.0507,0.0,2.090287062,161.3052658,2.71,'11111222,11111222,11111222' 
TABS,ioos:station:wmo:42044:1,2015-08-01T01:00:00Z,26.1914,-97.0507,0.0,1.40943251,155.2535201,1.96,'11111222,11111222,11111222' 
TABS,ioos:station:wmo:42044:1,2015-08-01T01:30:00Z,26.1914,-97.0507,0.0,1.078378412,155.3364534,1.26,'11111222,11111222,11111222' 
TABS,ioos:station:wmo:42044:1,2015-08-01T02:00:00Z,26.1914,-97.0507,0.0,1.015332458,129.8058989,1.2,'11111222,11111222,11111222' 
TABS,ioos:station:wmo:42044:1,2015-08-01T02:30:00Z,26.1914,-97.0507,0.0,1.59298462,128.8848264,1.83,'11111222,11111222,11111222' 
TABS,ioos:station:wmo:42044:1,2015-08-01T03:00:00Z,26.1914,-97.0507,0.0,1.938710912,119.342007,2.41,'11111222,11111222,11111222' 
TABS,ioos:station:wmo:42044:1,2015-08-01T03:30:00Z,26.1914,-97.0507,0.0,1.800055555,145.8688156,2.1,'11111222,11111222,11111222' 
TABS,ioos:station:wmo:42044:1,2015-08-01T04:00:00Z,26.1914,-97.0507,0.0,2.093442142,139.8443047,2.52,'11111222,11111222,11111222' 
TABS,ioos:station:wmo:42044:1,2015-08-01T04:30:00Z,26.1914,-97.0507,0.0,2.14704448,164.6046972,2.46,'11111222,11111222,11111222' 
TABS,ioos:station:wmo:42044:1,2015-08-01T05:00:00Z,26.1914,-97.0507,0.0,1.112115102,142.3060581,1.67,'11111222,11111222,11111222' 
TABS,ioos:station:wmo:42044:1,2015-08-01T05:30:00Z,26.1914,-97.0507,0.0,2.097546185,120.3550982,2.66,'11111222,11111222,11111222' 
TABS,ioos:station:wmo:42044:1,2015-08-01T06:00:00Z,26.1914,-97.0507,0.0,2.131783291,111.7518703,2.52,'11111222,11111222,11111222' 
TABS,ioos:station:wmo:42044:1,2015-08-01T06:30:00Z,26.1914,-97.0507,0.0,1.332704018,116.7576765,1.55,'11111222,11111222,11111222' 
TABS,ioos:station:wmo:42044:1,2015-08-01T07:00:00Z,26.1914,-97.0507,0.0,1.18460964,125.0319828,1.48,'11111222,11111222,11111222' 
TABS,ioos:station:wmo:42044:1,2015-08-01T07:30:00Z,26.1914,-97.0507,0.0,1.290620006,178.2241704,1.5,'11111222,11111222,11111222' 
TABS,ioos:station:wmo:42044:1,2015-08-01T08:00:00Z,26.1914,-97.0507,0.0,1.936517493,206.0359245,2.33,'11111222,11111222,11111222' 
TABS,ioos:station:wmo:42044:1,2015-08-01T08:30:00Z,26.1914,-97.0507,0.0,2.11896201,213.8401875,2.49,'11111222,11111222,11111222' 
TABS,ioos:station:wmo:42044:1,2015-08-01T09:00:00Z,26.1914,-97.0507,0.0,1.559743569,220.8404727,1.98,'11111222,11111222,11111222' 
TABS,ioos:station:wmo:42044:1,2015-08-01T09:30:00Z,26.1914,-97.0507,0.0,1.391294361,244.908529,1.63,'11111222,11111222,11111222' 
TABS,ioos:station:wmo:42044:1,2015-08-01T10:00:00Z,26.1914,-97.0507,0.0,1.08853112,246.7323496,1.36,'11111222,11111222,11111222' 
TABS,ioos:station:wmo:42044:1,2015-08-01T10:30:00Z,26.1914,-97.0507,0.0,1.621634977,246.7550705,1.9,'11111222,11111222,11111222' 
TABS,ioos:station:wmo:42044:1,2015-08-01T11:00:00Z,26.1914,-97.0507,0.0,1.060424443,285.8711415,1.34,'11111222,11111222,11111222' 
TABS,ioos:station:wmo:42044:1,2015-08-01T11:30:00Z,26.1914,-97.0507,0.0,0.867698104,332.548856,1.05,'11111222,11111222,11111222' 
TABS,ioos:station:wmo:42044:1,2015-08-01T12:00:00Z,26.1914,-97.0507,0.0,1.206026534,344.1196879,1.42,'11111222,11111222,11111222' 
TABS,ioos:station:wmo:42044:1,2015-08-01T12:30:00Z,26.1914,-97.0507,0.0,1.214989712,354.8053728,1.43,'11111222,11111222,11111222' 
TABS,ioos:station:wmo:42044:1,2015-08-01T13:00:00Z,26.1914,-97.0507,0.0,0.982293235,324.5300003,1.18,'11111222,11111222,11111222' 
TABS,ioos:station:wmo:42044:1,2015-08-01T13:30:00Z,26.1914,-97.0507,0.0,2.290785891,358.498937,2.75,'11111222,11111222,11111222' 
TABS,ioos:station:wmo:42044:1,2015-08-01T14:00:00Z,26.1914,-97.0507,0.0,2.689851297,355.0946449,3.3,'11111222,11111222,11111222' 
TABS,ioos:station:wmo:42044:1,2015-08-01T14:30:00Z,26.1914,-97.0507,0.0,2.803497815,357.137391,3.53,'11111222,11111222,11111222' 
TABS,ioos:station:wmo:42044:1,2015-08-01T15:00:00Z,26.1914,-97.0507,0.0,3.174035287,357.1103478,3.76,'11111222,11111222,11111222' 
TABS,ioos:station:wmo:42044:1,2015-08-01T15:30:00Z,26.1914,-97.0507,0.0,2.939812919,355.317085,3.36,'11111222,11111222,11111222' 
TABS,ioos:station:wmo:42044:1,2015-08-01T16:00:00Z,26.1914,-97.0507,0.0,3.976342541,347.3616088,4.92,'11111222,11111222,11111222' 
TABS,ioos:station:wmo:42044:1,2015-08-01T16:30:00Z,26.1914,-97.0507,0.0,3.542950748,351.0692203,4.31,'11111222,11111222,11111222' 
TABS,ioos:station:wmo:42044:1,2015-08-01T17:00:00Z,26.1914,-97.0507,0.0,3.187789203,352.4289183,4.19,'11111222,11111222,11111222' 
TABS,ioos:station:wmo:42044:1,2015-08-01T17:30:00Z,26.1914,-97.0507,0.0,3.030148511,0.567054625,4.16,'11111222,11111222,11111222' 
TABS,ioos:station:wmo:42044:1,2015-08-01T18:00:00Z,26.1914,-97.0507,0.0,3.019817875,14.77228923,3.95,'11111222,11111222,11111222' 
TABS,ioos:station:wmo:42044:1,2015-08-01T18:30:00Z,26.1914,-97.0507,0.0,2.985180062,24.33249531,3.79,'11111222,11111222,11111222' 
TABS,ioos:station:wmo:42044:1,2015-08-01T19:00:00Z,26.1914,-97.0507,0.0,2.291724242,20.96545236,2.91,'11111222,11111222,11111222' 
TABS,ioos:station:wmo:42044:1,2015-08-01T19:30:00Z,26.1914,-97.0507,0.0,2.139649504,11.04711425,2.94,'11111222,11111222,11111222' 
TABS,ioos:station:wmo:42044:1,2015-08-01T20:00:00Z,26.1914,-97.0507,0.0,1.926058151,31.62670619,2.25,'11111222,11111222,11111222' 
TABS,ioos:station:wmo:42044:1,2015-08-01T20:30:00Z,26.1914,-97.0507,0.0,1.808922331,70.96369214,2.13,'11111222,11111222,11111222' 
TABS,ioos:station:wmo:42044:1,2015-08-01T21:00:00Z,26.1914,-97.0507,0.0,1.952434378,83.52977423,2.36,'11111222,11111222,11111222' 
TABS,ioos:station:wmo:42044:1,2015-08-01T21:30:00Z,26.1914,-97.0507,0.0,2.288427408,105.9801707,2.75,'11111222,11111222,11111222' 
TABS,ioos:station:wmo:42044:1,2015-08-01T22:00:00Z,26.1914,-97.0507,0.0,2.962785851,135.1370592,3.41,'11111222,11111222,11111222' 
TABS,ioos:station:wmo:42044:1,2015-08-01T22:30:00Z,26.1914,-97.0507,0.0,3.339461034,161.1312551,4.05,'11111222,11111222,11111222' 
TABS,ioos:station:wmo:42044:1,2015-08-01T23:00:00Z,26.1914,-97.0507,0.0,3.279832313,162.6149629,4.24,'11111222,11111222,11111222' 
TABS,ioos:station:wmo:42044:1,2015-08-01T23:30:00Z,26.1914,-97.0507,0.0,2.97195222,167.3668781,3.56,'11111222,11111222,11111222' 
TABS,ioos:station:wmo:42044:1,2015-08-02T00:00:00Z,26.1914,-97.0507,0.0,3.007341018,161.384562,3.88,'11111222,11111222,11111222' 
TABS,ioos:station:wmo:42044:1,2015-08-02T00:30:00Z,26.1914,-97.0507,0.0,2.796640842,168.4492302,3.51,'11111222,11111222,11111222' 
TABS,ioos:station:wmo:42044:1,2015-08-02T01:00:00Z,26.1914,-97.0507,0.0,2.148418023,174.9265176,2.55,'11111222,11111222,11111222' 
TABS,ioos:station:wmo:42044:1,2015-08-02T01:30:00Z,26.1914,-97.0507,0.0,1.750257124,179.0180956,2.31,'11111222,11111222,11111222' 
TABS,ioos:station:wmo:42044:1,2015-08-02T02:00:00Z,26.1914,-97.0507,0.0,2.682685222,182.5639747,3.24,'11111222,11111222,11111222' 
TABS,ioos:station:wmo:42044:1,2015-08-02T02:30:00Z,26.1914,-97.0507,0.0,2.719742635,199.1013146,3.36,'11111222,11111222,11111222' 
TABS,ioos:station:wmo:42044:1,2015-08-02T03:00:00Z,26.1914,-97.0507,0.0,3.311570624,213.5462406,4.0,'11111222,11111222,11111222' 
TABS,ioos:station:wmo:42044:1,2015-08-02T03:30:00Z,26.1914,-97.0507,0.0,3.389985251,212.4713268,4.04,'11111222,11111222,11111222' 
TABS,ioos:station:wmo:42044:1,2015-08-02T04:00:00Z,26.1914,-97.0507,0.0,3.27830749,213.9325651,4.23,'11111222,11111222,11111222' 
TABS,ioos:station:wmo:42044:1,2015-08-02T04:30:00Z,26.1914,-97.0507,0.0,3.177750777,222.5770135,4.32,'11111222,11111222,11111222' 
TABS,ioos:station:wmo:42044:1,2015-08-02T05:00:00Z,26.1914,-97.0507,0.0,3.203154695,228.7973442,3.92,'11111222,11111222,11111222' 
TABS,ioos:station:wmo:42044:1,2015-08-02T05:30:00Z,26.1914,-97.0507,0.0,2.964675362,222.9498241,3.64,'11111222,11111222,11111222' 
TABS,ioos:station:wmo:42044:1,2015-08-02T06:00:00Z,26.1914,-97.0507,0.0,3.020744941,223.25628,3.77,'11111222,11111222,11111222' 
TABS,ioos:station:wmo:42044:1,2015-08-02T06:30:00Z,26.1914,-97.0507,0.0,2.532133488,232.5418653,3.06,'11111222,11111222,11111222' 
TABS,ioos:station:wmo:42044:1,2015-08-02T07:00:00Z,26.1914,-97.0507,0.0,3.790329801,224.3587629,4.44,'11111222,11111222,11111222' 
TABS,ioos:station:wmo:42044:1,2015-08-02T07:30:00Z,26.1914,-97.0507,0.0,3.186361561,232.2670426,3.91,'11111222,11111222,11111222' 
TABS,ioos:station:wmo:42044:1,2015-08-02T08:00:00Z,26.1914,-97.0507,0.0,3.556922827,224.4305848,4.23,'11111222,11111222,11111222' 
TABS,ioos:station:wmo:42044:1,2015-08-02T08:30:00Z,26.1914,-97.0507,0.0,3.691950704,231.267572,4.43,'11111222,11111222,11111222' 
TABS,ioos:station:wmo:42044:1,2015-08-02T09:00:00Z,26.1914,-97.0507,0.0,2.964675362,227.0503864,3.48,'11111222,11111222,11111222' 
TABS,ioos:station:wmo:42044:1,2015-08-02T09:30:00Z,26.1914,-97.0507,0.0,2.815759223,229.4650125,3.43,'11111222,11111222,11111222' 
TABS,ioos:station:wmo:42044:1,2015-08-02T10:00:00Z,26.1914,-97.0507,0.0,2.713005713,246.080453,3.3,'11111222,11111222,11111222' 
TABS,ioos:station:wmo:42044:1,2015-08-02T10:30:00Z,26.1914,-97.0507,0.0,2.572353008,244.929341,3.43,'11111222,11111222,11111222' 
TABS,ioos:station:wmo:42044:1,2015-08-02T11:00:00Z,26.1914,-97.0507,0.0,2.302216323,252.0373005,2.87,'11111222,11111222,11111222' 
TABS,ioos:station:wmo:42044:1,2015-08-02T11:30:00Z,26.1914,-97.0507,0.0,1.863249849,246.5995772,2.3,'11111222,11111222,11111222' 
TABS,ioos:station:wmo:42044:1,2015-08-02T12:00:00Z,26.1914,-97.0507,0.0,2.198294794,215.9316876,2.6,'11111222,11111222,11111222' 
TABS,ioos:station:wmo:42044:1,2015-08-02T12:30:00Z,26.1914,-97.0507,0.0,1.9250974,246.0980055,2.45,'11111222,11111222,11111222' 
TABS,ioos:station:wmo:42044:1,2015-08-02T13:00:00Z,26.1914,-97.0507,0.0,1.896127633,233.7949816,2.29,'11111222,11111222,11111222' 
TABS,ioos:station:wmo:42044:1,2015-08-02T13:30:00Z,26.1914,-97.0507,0.0,0.961665222,253.0725265,1.29,'11111222,11111222,11111222' 
TABS,ioos:station:wmo:42044:1,2015-08-02T14:00:00Z,26.1914,-97.0507,0.0,0.92347171,342.3497066,2.02,'11111222,11111222,11111222' 
TABS,ioos:station:wmo:42044:1,2015-08-02T14:30:00Z,26.1914,-97.0507,0.0,1.61523992,4.61613084,2.0,'11111222,11111222,11111222' 
TABS,ioos:station:wmo:42044:1,2015-08-02T15:00:00Z,26.1914,-97.0507,0.0,1.606019925,37.15500656,1.92,'11111222,11111222,11111222' 
TABS,ioos:station:wmo:42044:1,2015-08-02T15:30:00Z,26.1914,-97.0507,0.0,1.834121043,25.16760084,2.3,'11111222,11111222,11111222' 
TABS,ioos:station:wmo:42044:1,2015-08-02T16:00:00Z,26.1914,-97.0507,0.0,1.627421273,39.26433339,2.05,'11111222,11111222,11111222' 
TABS,ioos:station:wmo:42044:1,2015-08-02T16:30:00Z,26.1914,-97.0507,0.0,2.064654935,38.31279062,2.57,'11111222,11111222,11111222' 
TABS,ioos:station:wmo:42044:1,2015-08-02T17:00:00Z,26.1914,-97.0507,0.0,2.768122107,33.05828873,3.79,'11111222,11111222,11111222' 
TABS,ioos:station:wmo:42044:1,2015-08-02T17:30:00Z,26.1914,-97.0507,0.0,2.649150807,48.3661371,3.39,'11111222,11111222,11111222' 
TABS,ioos:station:wmo:42044:1,2015-08-02T18:00:00Z,26.1914,-97.0507,0.0,2.602710126,70.938136,3.32,'11111222,11111222,11111222' 
TABS,ioos:station:wmo:42044:1,2015-08-02T18:30:00Z,26.1914,-97.0507,0.0,3.203061036,64.87468002,3.94,'11111222,11111222,11111222' 
TABS,ioos:station:wmo:42044:1,2015-08-02T19:00:00Z,26.1914,-97.0507,0.0,2.933734821,63.25990872,3.57,'11111222,11111222,11111222' 
TABS,ioos:station:wmo:42044:1,2015-08-02T19:30:00Z,26.1914,-97.0507,0.0,3.058120338,70.91294129,3.89,'11111222,11111222,11111222' 
TABS,ioos:station:wmo:42044:1,2015-08-02T20:00:00Z,26.1914,-97.0507,0.0,2.926431274,77.76810676,3.61,'11111222,11111222,11111222' 
TABS,ioos:station:wmo:42044:1,2015-08-02T20:30:00Z,26.1914,-97.0507,0.0,2.753052851,76.77100686,3.56,'11111222,11111222,11111222' 
TABS,ioos:station:wmo:42044:1,2015-08-02T21:00:00Z,26.1914,-97.0507,0.0,3.193070622,87.48664919,4.1,'11111222,11111222,11111222' 
TABS,ioos:station:wmo:42044:1,2015-08-02T21:30:00Z,26.1914,-97.0507,0.0,3.40013235,89.49404239,4.54,'11111222,11111222,11111222' 
TABS,ioos:station:wmo:42044:1,2015-08-02T22:00:00Z,26.1914,-97.0507,0.0,4.155538473,96.35582389,5.07,'11111222,11111222,11111222' 
TABS,ioos:station:wmo:42044:1,2015-08-02T22:30:00Z,26.1914,-97.0507,0.0,4.575172128,110.3365587,5.54,'11111222,11111222,11111222' 
TABS,ioos:station:wmo:42044:1,2015-08-02T23:00:00Z,26.1914,-97.0507,0.0,4.439380587,110.4355732,5.32,'11111222,11111222,11111222' 
TABS,ioos:station:wmo:42044:1,2015-08-02T23:30:00Z,26.1914,-97.0507,0.0,3.32364258,120.964105,4.35,'11111222,11111222,11111222' 
TABS,ioos:station:wmo:42044:1,2015-08-03T00:00:00Z,26.1914,-97.0507,0.0,3.788667312,124.0259587,4.54,'11111222,11111222,11111222' 
TABS,ioos:station:wmo:42044:1,2015-08-03T00:30:00Z,26.1914,-97.0507,0.0,4.138272586,124.2664189,4.82,'11111222,11111222,11111222' 
TABS,ioos:station:wmo:42044:1,2015-08-03T01:00:00Z,26.1914,-97.0507,0.0,4.055970907,121.1821424,4.81,'11111222,11111222,11111222' 
TABS,ioos:station:wmo:42044:1,2015-08-03T01:30:00Z,26.1914,-97.0507,0.0,4.126063499,130.8727336,5.15,'11111222,11111222,11111222' 
TABS,ioos:station:wmo:42044:1,2015-08-03T02:00:00Z,26.1914,-97.0507,0.0,4.394769619,122.1715628,5.11,'11111222,11111222,11111222' 
TABS,ioos:station:wmo:42044:1,2015-08-03T02:30:00Z,26.1914,-97.0507,0.0,4.396839774,124.8108756,5.17,'11111222,11111222,11111222' 
TABS,ioos:station:wmo:42044:1,2015-08-03T03:00:00Z,26.1914,-97.0507,0.0,5.096194659,132.4555173,6.21,'11111222,11111222,11111222' 
TABS,ioos:station:wmo:42044:1,2015-08-03T03:30:00Z,26.1914,-97.0507,0.0,5.216598509,137.5640799,6.05,'11111222,11111222,11111222' 
TABS,ioos:station:wmo:42044:1,2015-08-03T04:00:00Z,26.1914,-97.0507,0.0,4.620584379,148.2709285,5.69,'11111222,11111222,11111222' 
TABS,ioos:station:wmo:42044:1,2015-08-03T04:30:00Z,26.1914,-97.0507,0.0,5.069605507,158.5976064,5.96,'11111222,11111222,11111222' 
TABS,ioos:station:wmo:42044:1,2015-08-03T05:00:00Z,26.1914,-97.0507,0.0,5.216713525,159.9326992,6.36,'11111222,11111222,11111222' 
TABS,ioos:station:wmo:42044:1,2015-08-03T05:30:00Z,26.1914,-97.0507,0.0,4.659839053,164.9500235,5.88,'11111222,11111222,11111222' 
TABS,ioos:station:wmo:42044:1,2015-08-03T06:00:00Z,26.1914,-97.0507,0.0,4.175068862,172.5688199,5.17,'11111222,11111222,11111222' 
TABS,ioos:station:wmo:42044:1,2015-08-03T06:30:00Z,26.1914,-97.0507,0.0,3.95506005,177.1016404,4.89,'11111222,11111222,11111222' 
TABS,ioos:station:wmo:42044:1,2015-08-03T07:00:00Z,26.1914,-97.0507,0.0,3.700662103,178.9163681,4.72,'11111222,11111222,11111222' 
TABS,ioos:station:wmo:42044:1,2015-08-03T07:30:00Z,26.1914,-97.0507,0.0,4.490545624,179.1070322,5.81,'11111222,11111222,11111222' 
TABS,ioos:station:wmo:42044:1,2015-08-03T08:00:00Z,26.1914,-97.0507,0.0,4.780847205,178.9215496,5.77,'11111222,11111222,11111222' 
TABS,ioos:station:wmo:42044:1,2015-08-03T08:30:00Z,26.1914,-97.0507,0.0,4.993615924,182.1807548,5.88,'11111222,11111222,11111222' 
TABS,ioos:station:wmo:42044:1,2015-08-03T09:00:00Z,26.1914,-97.0507,0.0,5.123524178,177.8749801,5.93,'11111222,11111222,11111222' 
TABS,ioos:station:wmo:42044:1,2015-08-03T09:30:00Z,26.1914,-97.0507,0.0,4.813751136,182.262272,5.65,'11111222,11111222,11111222' 
TABS,ioos:station:wmo:42044:1,2015-08-03T10:00:00Z,26.1914,-97.0507,0.0,4.354147448,182.5011893,5.28,'11111222,11111222,11111222' 
TABS,ioos:station:wmo:42044:1,2015-08-03T10:30:00Z,26.1914,-97.0507,0.0,3.801078794,184.3757838,4.56,'11111222,11111222,11111222' 
TABS,ioos:station:wmo:42044:1,2015-08-03T11:00:00Z,26.1914,-97.0507,0.0,3.910818329,181.1723363,4.78,'11111222,11111222,11111222' 
TABS,ioos:station:wmo:42044:1,2015-08-03T11:30:00Z,26.1914,-97.0507,0.0,2.959594567,173.4034876,3.43,'11111222,11111222,11111222' 
TABS,ioos:station:wmo:42044:1,2015-08-03T12:00:00Z,26.1914,-97.0507,0.0,3.1144823,169.267571,3.57,'11111222,11111222,11111222' 
TABS,ioos:station:wmo:42044:1,2015-08-03T12:30:00Z,26.1914,-97.0507,0.0,3.499057016,172.6111774,4.21,'11111222,11111222,11111222' 
TABS,ioos:station:wmo:42044:1,2015-08-03T13:00:00Z,26.1914,-97.0507,0.0,3.457817231,171.5186245,4.22,'11111222,11111222,11111222' 
TABS,ioos:station:wmo:42044:1,2015-08-03T13:30:00Z,26.1914,-97.0507,0.0,3.914690281,172.3668977,4.57,'11111222,11111222,11111222' 
TABS,ioos:station:wmo:42044:1,2015-08-03T14:00:00Z,26.1914,-97.0507,0.0,3.480488471,184.4494085,4.09,'11111222,11111222,11111222' 
TABS,ioos:station:wmo:42044:1,2015-08-03T14:30:00Z,26.1914,-97.0507,0.0,4.056414673,195.4411166,4.82,'11111222,11111222,11111222' 
TABS,ioos:station:wmo:42044:1,2015-08-03T15:00:00Z,26.1914,-97.0507,0.0,3.904484601,189.5831328,4.56,'11111222,11111222,11111222' 
TABS,ioos:station:wmo:42044:1,2015-08-03T15:30:00Z,26.1914,-97.0507,0.0,4.00005,185.7392955,4.95,'11111222,11111222,11111222' 
TABS,ioos:station:wmo:42044:1,2015-08-03T16:00:00Z,26.1914,-97.0507,0.0,3.61835598,191.1548441,4.4,'11111222,11111222,11111222' 
TABS,ioos:station:wmo:42044:1,2015-08-03T16:30:00Z,26.1914,-97.0507,0.0,3.210062305,180.3571881,3.86,'11111222,11111222,11111222' 
TABS,ioos:station:wmo:42044:1,2015-08-03T17:00:00Z,26.1914,-97.0507,0.0,2.73,180.0002105,3.31,'11111222,11111222,11111222' 
TABS,ioos:station:wmo:42044:1,2015-08-03T17:30:00Z,26.1914,-97.0507,0.0,2.730018315,173.0574317,3.27,'11111222,11111222,11111222' 
TABS,ioos:station:wmo:42044:1,2015-08-03T18:00:00Z,26.1914,-97.0507,0.0,2.719558788,161.5653047,3.38,'11111222,11111222,11111222' 
TABS,ioos:station:wmo:42044:1,2015-08-03T18:30:00Z,26.1914,-97.0507,0.0,3.167601616,148.8193809,3.59,'11111222,11111222,11111222' 
TABS,ioos:station:wmo:42044:1,2015-08-03T19:00:00Z,26.1914,-97.0507,0.0,3.44553334,140.5353937,4.12,'11111222,11111222,11111222' 
TABS,ioos:station:wmo:42044:1,2015-08-03T19:30:00Z,26.1914,-97.0507,0.0,4.042004453,143.0453487,5.03,'11111222,11111222,11111222' 
TABS,ioos:station:wmo:42044:1,2015-08-03T20:00:00Z,26.1914,-97.0507,0.0,4.197773219,144.7958185,5.17,'11111222,11111222,11111222' 
TABS,ioos:station:wmo:42044:1,2015-08-03T20:30:00Z,26.1914,-97.0507,0.0,4.696647741,142.1788127,5.5,'11111222,11111222,11111222' 
TABS,ioos:station:wmo:42044:1,2015-08-03T21:00:00Z,26.1914,-97.0507,0.0,4.907504457,135.4956547,6.09,'11111222,11111222,11111222' 
TABS,ioos:station:wmo:42044:1,2015-08-03T21:30:00Z,26.1914,-97.0507,0.0,4.935625594,134.8361452,6.37,'11111222,11111222,11111222' 
TABS,ioos:station:wmo:42044:1,2015-08-03T22:00:00Z,26.1914,-97.0507,0.0,4.992494367,135.6495303,6.0,'11111222,11111222,11111222' 
TABS,ioos:station:wmo:42044:1,2015-08-03T22:30:00Z,26.1914,-97.0507,0.0,4.781767456,138.4762251,6.01,'11111222,11111222,11111222' 
TABS,ioos:station:wmo:42044:1,2015-08-03T23:00:00Z,26.1914,-97.0507,0.0,5.529737788,135.4399156,6.99,'11111222,11111222,11111222' 
TABS,ioos:station:wmo:42044:1,2015-08-03T23:30:00Z,26.1914,-97.0507,0.0,5.274438359,137.8435351,6.46,'11111222,11111222,11111222' 
TABS,ioos:station:wmo:42044:1,2015-08-04T00:00:00Z,26.1914,-97.0507,0.0,5.352915094,135.3787491,6.34,'11111222,11111222,11111222' 
TABS,ioos:station:wmo:42044:1,2015-08-04T00:30:00Z,26.1914,-97.0507,0.0,5.824946352,138.7588626,7.01,'11111222,11111222,11111222' 
TABS,ioos:station:wmo:42044:1,2015-08-04T01:00:00Z,26.1914,-97.0507,0.0,5.668165488,137.2166441,6.72,'11111222,11111222,11111222' 
TABS,ioos:station:wmo:42044:1,2015-08-04T01:30:00Z,26.1914,-97.0507,0.0,6.123610046,134.7356726,7.24,'11111222,11111222,11111222' 
TABS,ioos:station:wmo:42044:1,2015-08-04T02:00:00Z,26.1914,-97.0507,0.0,6.449263524,140.4108556,7.67,'11111222,11111222,11111222' 
TABS,ioos:station:wmo:42044:1,2015-08-04T02:30:00Z,26.1914,-97.0507,0.0,6.086788973,142.2078739,7.59,'11111222,11111222,11111222' 
TABS,ioos:station:wmo:42044:1,2015-08-04T03:00:00Z,26.1914,-97.0507,0.0,6.626077271,143.4071039,8.12,'11111222,11111222,11111222' 
TABS,ioos:station:wmo:42044:1,2015-08-04T03:30:00Z,26.1914,-97.0507,0.0,6.947841391,145.8527812,8.05,'11111222,11111222,11111222' 
TABS,ioos:station:wmo:42044:1,2015-08-04T04:00:00Z,26.1914,-97.0507,0.0,7.081645289,150.9378159,8.27,'11111222,11111222,11111222' 
TABS,ioos:station:wmo:42044:1,2015-08-04T04:30:00Z,26.1914,-97.0507,0.0,6.950115107,154.0619827,8.49,'11111222,11111222,11111222' 
TABS,ioos:station:wmo:42044:1,2015-08-04T05:00:00Z,26.1914,-97.0507,0.0,7.202867485,155.9973944,8.41,'11111222,11111222,11111222' 
TABS,ioos:station:wmo:42044:1,2015-08-04T05:30:00Z,26.1914,-97.0507,0.0,7.244949965,159.1387628,8.5,'11111222,11111222,11111222' 
TABS,ioos:station:wmo:42044:1,2015-08-04T06:00:00Z,26.1914,-97.0507,0.0,7.002542395,160.4785258,8.65,'11111222,11111222,11111222' 
TABS,ioos:station:wmo:42044:1,2015-08-04T06:30:00Z,26.1914,-97.0507,0.0,7.24033839,164.2939899,8.55,'11111222,11111222,11111222' 
TABS,ioos:station:wmo:42044:1,2015-08-04T07:00:00Z,26.1914,-97.0507,0.0,6.732874572,166.2529523,8.22,'11111222,11111222,11111222' 
TABS,ioos:station:wmo:42044:1,2015-08-04T07:30:00Z,26.1914,-97.0507,0.0,6.350338574,168.371802,7.79,'11111222,11111222,11111222' 
TABS,ioos:station:wmo:42044:1,2015-08-04T08:00:00Z,26.1914,-97.0507,0.0,6.163318911,174.0398773,7.56,'11111222,11111222,11111222' 
TABS,ioos:station:wmo:42044:1,2015-08-04T08:30:00Z,26.1914,-97.0507,0.0,6.051941837,176.4002622,6.94,'11111222,11111222,11111222' 
TABS,ioos:station:wmo:42044:1,2015-08-04T09:00:00Z,26.1914,-97.0507,0.0,5.247856705,174.0940832,6.37,'11111222,11111222,11111222' 
TABS,ioos:station:wmo:42044:1,2015-08-04T09:30:00Z,26.1914,-97.0507,0.0,4.762688316,178.0750313,5.67,'11111222,11111222,11111222' 
TABS,ioos:station:wmo:42044:1,2015-08-04T10:00:00Z,26.1914,-97.0507,0.0,4.122438599,175.5482171,4.94,'11111222,11111222,11111222' 
TABS,ioos:station:wmo:42044:1,2015-08-04T10:30:00Z,26.1914,-97.0507,0.0,4.1301937,175.9739052,4.73,'11111222,11111222,11111222' 
TABS,ioos:station:wmo:42044:1,2015-08-04T11:00:00Z,26.1914,-97.0507,0.0,4.126838984,171.3596243,4.79,'11111222,11111222,11111222' 
TABS,ioos:station:wmo:42044:1,2015-08-04T11:30:00Z,26.1914,-97.0507,0.0,3.836782506,172.0601968,4.48,'11111222,11111222,11111222' 
TABS,ioos:station:wmo:42044:1,2015-08-04T12:00:00Z,26.1914,-97.0507,0.0,3.281005943,172.1170896,3.92,'11111222,11111222,11111222' 
TABS,ioos:station:wmo:42044:1,2015-08-04T12:30:00Z,26.1914,-97.0507,0.0,2.523568901,151.6072574,3.1,'11111222,11111222,11111222' 
TABS,ioos:station:wmo:42044:1,2015-08-04T13:00:00Z,26.1914,-97.0507,0.0,2.843554114,145.024779,3.36,'11111222,11111222,11111222' 
TABS,ioos:station:wmo:42044:1,2015-08-04T13:30:00Z,26.1914,-97.0507,0.0,2.647640459,137.7557339,3.06,'11111222,11111222,11111222' 
TABS,ioos:station:wmo:42044:1,2015-08-04T14:00:00Z,26.1914,-97.0507,0.0,2.741167634,147.8176539,3.3,'11111222,11111222,11111222' 
TABS,ioos:station:wmo:42044:1,2015-08-04T14:30:00Z,26.1914,-97.0507,0.0,2.677256058,140.3043366,3.32,'11111222,11111222,11111222' 
TABS,ioos:station:wmo:42044:1,2015-08-04T15:00:00Z,26.1914,-97.0507,0.0,2.250555487,128.1432594,2.69,'11111222,11111222,11111222' 
TABS,ioos:station:wmo:42044:1,2015-08-04T15:30:00Z,26.1914,-97.0507,0.0,3.443791515,135.588546,4.06,'11111222,11111222,11111222' 
TABS,ioos:station:wmo:42044:1,2015-08-04T16:00:00Z,26.1914,-97.0507,0.0,2.793027032,145.7981591,3.39,'11111222,11111222,11111222' 
TABS,ioos:station:wmo:42044:1,2015-08-04T16:30:00Z,26.1914,-97.0507,0.0,3.112041131,142.8358225,3.77,'11111222,11111222,11111222' 
TABS,ioos:station:wmo:42044:1,2015-08-04T17:00:00Z,26.1914,-97.0507,0.0,2.957853952,139.5250736,3.37,'11111222,11111222,11111222' 
TABS,ioos:station:wmo:42044:1,2015-08-04T17:30:00Z,26.1914,-97.0507,0.0,3.177184288,137.1686029,3.89,'11111222,11111222,11111222' 
TABS,ioos:station:wmo:42044:1,2015-08-04T18:00:00Z,26.1914,-97.0507,0.0,3.386576442,140.1514087,4.1,'11111222,11111222,11111222' 
TABS,ioos:station:wmo:42044:1,2015-08-04T18:30:00Z,26.1914,-97.0507,0.0,4.1320818,142.7698794,5.32,'11111222,11111222,11111222' 